Location: Arcones
(41.1182°N, 3.7238°W)
Time: 03:49:16
(UTC+00:00)

Cosmos 2227 Rocket - Pass Details

Date: 11 December 2025
Orbit: 838 x 843 km, 71.0° (Epoch: 13 January)

Event Time Altitude Azimuth Distance (km) Brightness Sun altitude
Rises 18:37:27 0° 331° (NNW) 3,400 5.5 -20.2°
Reaches altitude 10° 18:39:57 10° 327° (NNW) 2,462 4.8 -20.7°
Maximum altitude 18:45:25 53° 252° (WSW) 1,021 2.9 -21.7°
Drops below altitude 10° 18:50:52 10° 176° (S) 2,450 4.7 -22.7°
Sets 18:53:21 0° 172° (S) 3,381 5.4 -23.1°
